Location: North Runcton
(52.7000°N, 0.4333°E)
Time: 14:23:02
(UTC+00:00)

Meteor 2-8 Rocket - Pass Details

Date: 19 May 2025
Orbit: 937 x 957 km, 82.5° (Epoch: 17 June)

Event Time Altitude Azimuth Distance (km) Brightness Sun altitude
Rises 23:12:29 0° 349° (NNW) 3,650 9.3 -16.7°
Reaches altitude 10° 23:14:59 10° 350° (N) 2,701 8.2 -16.8°
Maximum altitude 23:21:12 83° 79° (ENE) 972 4.5 -16.9°
Enters shadow 23:24:50 27° 165° (SSE) 1,768 5.3 -17.0°
